Location: Ariel
(45.9570°N, 122.5700°W)
Time: 15:19:12
(UTC-07:00)

A-11 Canister half - Pass Details

Date: 31 August 2019
Orbit: 1514 x 1686 km, 47.2° (Epoch: 15 September)

Event Time Altitude Azimuth Distance (km) Brightness Sun altitude
Rises 21:39:36 0° 289° (WNW) 4,720 13.0 -18.2°
Reaches altitude 10° 21:42:38 10° 287° (WNW) 3,756 12.1 -18.6°
Maximum altitude 21:52:06 71° 206° (SSW) 1,682 9.1 -19.9°
Enters shadow 21:57:38 30° 131° (SE) 2,608 9.6 -20.7°
